Preview of NWS' New Version of Forecast
This preview is not operational and should not be used for support decisions.

Regional Weather Roundup (RWR)

Issued by Gray - Portland, ME (GYX)

                            
554 
ASUS41 KGYX 250605
RWRGYX
WEATHER ROUNDUP FOR MAINE AND NEW HAMPSHIRE
NATIONAL WEATHER SERVICE GRAY ME
200 AM EDT FRI MAY 25 2018

MEZ002-005-006-010-012-015-018-020-021-024-026-027-029-250700-
MAINE
  
CITY           SKY/WX    TMP DP  RH WIND       PRES   REMARKS
PORTLAND       FAIR      53  50  89 SW6       29.93F                  
6HR MIN TEMP:  52; 6HR MAX TEMP:  54;                                

SANFORD        FAIR      52  49  89 SW6       29.95F                  
BAR HARBOR     FAIR      50  47  89 S14       29.91F                  
WISCASSET      FAIR      52  50  93 VRB5      29.94F                  
6HR MIN TEMP:  51; 6HR MAX TEMP:  53;                                

ROCKLAND       FAIR      52  48  86 SW8       29.93F                  
FRYEBURG       FAIR      46  42  86 CALM      29.91F                  
6HR MIN TEMP:  46; 6HR MAX TEMP:  65;                                

LEWISTONAUBURN FAIR      42  42 100 S3        29.91F                  
AUGUSTA        FAIR      48  47  96 S6        29.90F                  
6HR MIN TEMP:  48; 6HR MAX TEMP:  53;                                

WATERVILLE     FAIR      47  46  97 SW6       29.86F                  
BANGOR         FAIR      51  47  86 S10       29.88F                  
6HR MIN TEMP:  50; 6HR MAX TEMP:  52; 6HR PCP: TRACE;                

GREENVILLE       N/A     48  46  93 SE8       29.80F                  
6HR MIN TEMP:  48; 6HR MAX TEMP:  60;                                

MILLINOCKET    FAIR      50  45  83 CALM      29.82F                  
6HR MIN TEMP:  50; 6HR MAX TEMP:  59;                                

HOULTON        CLOUDY    49  46  90 S7        29.80F                  
6HR MIN TEMP:  49; 6HR MAX TEMP:  59; 6HR PCP:  0.05;                

PRESQUE ISLE   CLOUDY    47  45  93 SE3       29.79F                  
6HR MIN TEMP:  47; 6HR MAX TEMP:  58; 6HR PCP:  0.01;                

FRENCHVILLE    LGT RAIN  48  43  82 S9        29.74F                  
6HR MIN TEMP:  47; 6HR MAX TEMP:  57; 6HR PCP:  0.09;                

CARIBOU        LGT RAIN  49  44  83 CALM      29.78F                  
6HR MIN TEMP:  49; 6HR MAX TEMP:  58; 6HR PCP:  0.03;                

$$

NHZ002-005-008-009-011-012-014-250700-
NEW HAMPSHIRE
  
CITY           SKY/WX    TMP DP  RH WIND       PRES   REMARKS
PORTSMOUTH     PTCLDY    54  49  82 SW7       29.95F                  
ROCHESTER      FAIR      50  49  96 CALM      29.95F                  
6HR MIN TEMP:  50; 6HR MAX TEMP:  58;                                

NASHUA         FAIR      56  52  86 CALM      29.99F                  
MANCHESTER     FAIR      60  51  72 S5        29.97F                  
6HR MIN TEMP:  60; 6HR MAX TEMP:  77;                                

CONCORD        FAIR      54  49  83 S3        29.97F                  
6HR MIN TEMP:  52; 6HR MAX TEMP:  69;                                

LACONIA        FAIR      54  48  80 W5        29.95F                  
PLYMOUTH       FAIR      44  43  97 CALM      29.96F                  
BERLIN         FAIR      39  37  92 CALM      29.90F                  
6HR MIN TEMP:  39; 6HR MAX TEMP:  64;                                

WHITEFIELD     FAIR      41  39  93 CALM      29.93F                  
6HR MIN TEMP:  41; 6HR MAX TEMP:  61;                                

JAFFREY        FAIR      57  50  77 S8        30.03F                  
6HR MIN TEMP:  53; 6HR MAX TEMP:  66;                                

KEENE          FAIR      47  45  93 CALM      30.02F                  
LEBANON        FAIR      47  41  80 CALM      29.97F                  
6HR MIN TEMP:  47; 6HR MAX TEMP:  65;                                

MT WASHINGTON  PTCLDY    45  32  61 W60G67      N/A                   
6HR MIN TEMP:  40; 6HR MAX TEMP:  44;                                

$$

VTZ005-007-008-250700-
VERMONT
  
CITY           SKY/WX    TMP DP  RH WIND       PRES   REMARKS
ST JOHNSBURY     N/A     46  44  93 MISG      29.92F                  
MONTPELIER     FAIR      48  44  86 NE3       29.97F                  
BURLINGTON     FAIR      66  42  41 S10       29.91F                  
$$

MAZ007-012-024-CTZ003-RIZ002-NYZ038-NYZ072-250700-
SOUTHERN NEW ENGLAND AND NY
  
CITY           SKY/WX    TMP DP  RH WIND       PRES   REMARKS
BOSTON         FAIR      55  48  77 SW14      30.01F                  
WORCESTER      FAIR      55  46  71 W14       30.04                   
NANTUCKET      FOG       52  52 100 SW13      30.08F VSB 1/4          
PROVIDENCE     FAIR      50  48  93 SW5       30.07F                  
HARTFORD       FAIR      54  51  90 S6        30.05F                  
ALBANY         FAIR      59  46  62 CALM      30.01F                  
NEW YORK CITY  FAIR      71  46  40 SW12G21   30.07F                  
$$

ANZ081-ANZ082-ANZ150-NHZ014-MEZ023>029-250700-
COASTAL MARINE OBSERVATIONS
  
STATION/POSITION TIME  TEMP    WIND        PRES    WAVE
                       AIR SEA DIR/SP/G            HT/PER
                 (UTC) (F)     (DEG/KT/KT) (MB)    (FT/S)
MOUNT DESERT ROC 0500   48     200/ 20/ 22 1015.2F
MATINICUS ROCK   0500   50     220/ 19/ 22 1014.5F
ISLE OF SHOALS   0500   56     220/ 18/ 20 1015.0F
JEFFREYS LEDGE   0536      53                N/A     4/ 5
$$

.............KEY..............
   WCI - WIND CHILL
   TC  - TEMPERATURE IN CELSIUS
   VSB - VISIBILITY IN MILES
   HX  - HEAT INDEX
   FAIR- INDICATES FEW OR NO CLOUDS BELOW 12,000 FT, WITH NO 
         SIGNIFICANT WEATHER AND/OR OBSTRUCTIONS TO VISIBILITY.